Regional Weather Roundup
Issued by NWS

Home | Current Version | Previous Version | Text Only | Print | Product List | Glossary Off
Versions: 1 2 3 4 5 6 7 8 9 10 11 12 13 14 15 16 17 18 19 20 21 22 23 24 25 26 27 28 29 30 31 32 33 34 35 36 37 38 39 40 41 42 43 44 45 46 47 48 49 50

000
ASUS43 KBIS 251520
RWRND

NORTH DAKOTA REGIONAL WEATHER ROUNDUP
NATIONAL WEATHER SERVICE BISMARCK ND
1000 AM CDT SAT OCT 25 2014

NOTE: "FAIR" INDICATES FEW OR NO CLOUDS BELOW 12,000 FEET WITH NO
SIGNIFICANT WEATHER AND/OR OBSTRUCTIONS TO VISIBILITY.


NDZ001>003-009>011-017-251600-
NORTHWEST NORTH DAKOTA

CITY           SKY/WX    TMP DP  RH WIND       PRES   REMARKS
WILLISTON      PTSUNNY   43  33  68 CALM      30.13S
MINOT          MOSUNNY   44  30  57 SW6       30.13R
MINOT AFB      SUNNY     42  32  67 W8        30.13R
$$

NDZ018>021-031>035-040>046-251600-
SOUTHWEST NORTH DAKOTA

CITY           SKY/WX    TMP DP  RH WIND       PRES   REMARKS
BISMARCK       MOSUNNY   47  34  60 S3        30.18R
DICKINSON      SUNNY     46  34  62 S3        30.13S
GARRISON         N/A     44  32  62 CALM      30.14R
HETTINGER ARPT SUNNY     41  33  73 CALM      30.16S
$$

NDZ004>008-012>016-024-026-027-054-251600-
NORTHEAST NORTH DAKOTA

CITY           SKY/WX    TMP DP  RH WIND       PRES   REMARKS
GRAND FORKS    MOSUNNY   49  32  52 NW15      30.07R
GRND FRKS AFB  SUNNY     49  33  54 NW10      30.07R
DEVILS LAKE    SUNNY     45  32  61 W16       30.09R
$$

NDZ022-023-025-028>030-036>039-047>053-251600-
SOUTHEAST NORTH DAKOTA

CITY           SKY/WX    TMP DP  RH WIND       PRES   REMARKS
FARGO          MOSUNNY   49  33  54 W15       30.10R
JAMESTOWN      CLOUDY    48  36  63 W9        30.14R
$$




USA.gov is the U.S. government's official web portal to all federal, state and local government web resources and services.